• In India
  • List of Countries
  • For 7 days
  • Water Temperature
  • Satellite Maps
  • Weather Map
  • Weather Widgets
  • user-avatar
    Login

    Hourly Weather Klagenfurt

    Today, 26 September, Tuesday

    Time Temperature Precipitation Wind Pressure Humidity
    00:00 +8°C° 0 mm 1 mps 693 mmHg 96%
    01:00 +8°C° 0 mm 1 mps 693 mmHg 96%
    02:00 +8°C° 0 mm 1 mps 693 mmHg 96%
    03:00 +8°C° 0 mm 1 mps 693 mmHg 96%
    04:00 +7°C° 0 mm 1 mps 693 mmHg 96%
    05:00 +8°C° 0.1 mm 1 mps 693 mmHg 95%
    06:00 +8°C° 0.1 mm 1 mps 693 mmHg 94%
    07:00 +8°C° 0.1 mm 1 mps 693 mmHg 93%
    08:00 +10°C° 0.2 mm 1 mps 693 mmHg 89%
    09:00 +11°C° 0.2 mm 1 mps 694 mmHg 85%
    10:00 +12°C° 0.2 mm 1 mps 694 mmHg 81%
    11:00 +12°C° 0.4 mm 1 mps 694 mmHg 81%
    12:00 +12°C° 0.4 mm 1 mps 694 mmHg 82%
    13:00 +12°C° 0.4 mm 1 mps 694 mmHg 82%
    14:00 +12°C° 0.3 mm 1 mps 694 mmHg 84%
    15:00 +12°C° 0.3 mm 1 mps 694 mmHg 85%
    16:00 +12°C° 0.3 mm 1 mps 693 mmHg 86%
    17:00 +11°C° 0.1 mm 1 mps 694 mmHg 88%
    18:00 +11°C° 0.1 mm 1 mps 694 mmHg 90%
    19:00 +10°C° 0.1 mm 1 mps 694 mmHg 92%
    20:00 +10°C° 0.1 mm 1 mps 694 mmHg 92%
    21:00 +10°C° 0.1 mm 1 mps 694 mmHg 93%
    22:00 +10°C° 0.1 mm 1 mps 695 mmHg 94%
    23:00 +10°C° 0.1 mm 1 mps 694 mmHg 94%

    Tomorrow, 27 September, Wednesday

    Time Temperature Precipitation Wind Pressure Humidity
    00:00 +9°C° 0.1 mm 1 mps 694 mmHg 94%
    01:00 +9°C° 0.1 mm 1 mps 694 mmHg 94%
    02:00 +9°C° 0 mm 1 mps 694 mmHg 94%
    03:00 +9°C° 0 mm 1 mps 694 mmHg 94%
    04:00 +9°C° 0 mm 1 mps 694 mmHg 95%
    05:00 +9°C° 0 mm 1 mps 694 mmHg 94%
    06:00 +10°C° 0 mm 1 mps 695 mmHg 93%
    07:00 +10°C° 0 mm 1 mps 695 mmHg 93%
    08:00 +12°C° 0 mm 1 mps 695 mmHg 87%
    09:00 +13°C° 0 mm 1 mps 696 mmHg 81%
    10:00 +15°C° 0 mm 1 mps 696 mmHg 76%
    11:00 +16°C° 0.1 mm 2 mps 696 mmHg 73%
    12:00 +16°C° 0.1 mm 2 mps 696 mmHg 70%
    13:00 +17°C° 0.1 mm 2 mps 696 mmHg 67%
    14:00 +17°C° 0.1 mm 2 mps 696 mmHg 68%
    15:00 +17°C° 0.1 mm 2 mps 695 mmHg 70%
    16:00 +16°C° 0.1 mm 2 mps 695 mmHg 71%
    17:00 +15°C° 0 mm 1 mps 695 mmHg 78%
    18:00 +13°C° 0 mm 1 mps 695 mmHg 85%
    19:00 +11°C° 0 mm 1 mps 695 mmHg 92%
    20:00 +11°C° 0 mm 1 mps 695 mmHg 92%
    21:00 +10°C° 0 mm 1 mps 696 mmHg 93%
    22:00 +10°C° 0 mm 1 mps 696 mmHg 93%
    23:00 +10°C° 0 mm 1 mps 696 mmHg 94%

    Day after tomorrow, 28 September, Thursday

    Time Temperature Precipitation Wind Pressure Humidity
    00:00 +10°C° 0 mm 1 mps 696 mmHg 94%
    01:00 +9°C° 0 mm 1 mps 696 mmHg 95%
    02:00 +9°C° 0 mm 1 mps 696 mmHg 95%
    03:00 +9°C° 0 mm 1 mps 696 mmHg 95%
    04:00 +8°C° 0 mm 1 mps 696 mmHg 95%
    05:00 +8°C° 0 mm 1 mps 696 mmHg 94%
    06:00 +9°C° 0 mm 1 mps 696 mmHg 93%
    07:00 +9°C° 0 mm 1 mps 696 mmHg 92%
    08:00 +11°C° 0 mm 1 mps 697 mmHg 82%
    09:00 +14°C° 0 mm 1 mps 697 mmHg 71%
    10:00 +16°C° 0 mm 2 mps 697 mmHg 61%
    11:00 +17°C° 0 mm 2 mps 697 mmHg 57%
    12:00 +17°C° 0 mm 2 mps 697 mmHg 54%
    13:00 +18°C° 0 mm 2 mps 697 mmHg 50%
    14:00 +18°C° 0 mm 2 mps 697 mmHg 53%
    15:00 +17°C° 0 mm 2 mps 697 mmHg 56%
    16:00 +17°C° 0 mm 2 mps 696 mmHg 59%
    17:00 +14°C° 0 mm 1 mps 696 mmHg 69%
    18:00 +12°C° 0 mm 1 mps 696 mmHg 78%
    19:00 +10°C° 0 mm 1 mps 696 mmHg 87%
    20:00 +9°C° 0 mm 1 mps 696 mmHg 88%
    21:00 +9°C° 0 mm 1 mps 696 mmHg 89%
    22:00 +8°C° 0 mm 1 mps 696 mmHg 90%
    23:00 +8°C° 0 mm 1 mps 696 mmHg 91%

    29 September, Friday

    Time Temperature Precipitation Wind Pressure Humidity
    00:00 +8°C° 0 mm 1 mps 696 mmHg 91%
    01:00 +8°C° 0 mm 1 mps 695 mmHg 92%
    02:00 +7°C° 0 mm 1 mps 695 mmHg 92%
    03:00 +7°C° 0 mm 1 mps 695 mmHg 92%
    04:00 +7°C° 0 mm 1 mps 695 mmHg 92%
    05:00 +7°C° 0 mm 1 mps 695 mmHg 91%
    06:00 +8°C° 0 mm 1 mps 695 mmHg 89%
    07:00 +8°C° 0 mm 1 mps 695 mmHg 87%
    08:00 +11°C° 0 mm 1 mps 695 mmHg 77%
    09:00 +13°C° 0 mm 1 mps 696 mmHg 67%
    10:00 +16°C° 0 mm 1 mps 696 mmHg 57%
    11:00 +16°C° 0 mm 1 mps 696 mmHg 55%
    12:00 +17°C° 0 mm 2 mps 696 mmHg 53%
    13:00 +17°C° 0 mm 2 mps 696 mmHg 51%
    14:00 +17°C° 0 mm 2 mps 695 mmHg 54%
    15:00 +16°C° 0 mm 2 mps 695 mmHg 57%
    16:00 +16°C° 0 mm 2 mps 695 mmHg 60%
    17:00 +13°C° 0 mm 1 mps 694 mmHg 69%
    18:00 +11°C° 0 mm 1 mps 694 mmHg 77%
    19:00 +9°C° 0 mm 1 mps 694 mmHg 86%
    20:00 +9°C° 0 mm 1 mps 694 mmHg 87%
    21:00 +8°C° 0 mm 1 mps 694 mmHg 88%
    22:00 +8°C° 0 mm 1 mps 694 mmHg 89%
    23:00 +7°C° 0 mm 1 mps 694 mmHg 89%

    30 September, Saturday

    Time Temperature Precipitation Wind Pressure Humidity
    00:00 +6°C° 0 mm 0 mps 694 mmHg 90%
    01:00 +6°C° 0 mm 0 mps 693 mmHg 90%
    02:00 +6°C° 0 mm 1 mps 693 mmHg 90%
    03:00 +6°C° 0 mm 1 mps 693 mmHg 90%
    04:00 +6°C° 0 mm 1 mps 692 mmHg 90%
    05:00 +6°C° 0 mm 1 mps 693 mmHg 89%
    06:00 +7°C° 0 mm 1 mps 693 mmHg 87%
    07:00 +7°C° 0 mm 1 mps 693 mmHg 85%
    08:00 +9°C° 0 mm 1 mps 693 mmHg 74%
    09:00 +12°C° 0 mm 1 mps 693 mmHg 64%
    10:00 +14°C° 0 mm 1 mps 693 mmHg 53%
    11:00 +15°C° 0 mm 1 mps 693 mmHg 51%
    12:00 +16°C° 0 mm 1 mps 693 mmHg 49%
    13:00 +18°C° 0 mm 1 mps 692 mmHg 47%
    14:00 +16°C° 0 mm 1 mps 692 mmHg 50%
    15:00 +15°C° 0 mm 1 mps 692 mmHg 53%
    16:00 +15°C° 0 mm 1 mps 691 mmHg 56%
    17:00 +13°C° 0 mm 1 mps 691 mmHg 64%
    18:00 +11°C° 0 mm 1 mps 691 mmHg 72%
    19:00 +8°C° 0 mm 1 mps 691 mmHg 80%
    20:00 +8°C° 0 mm 1 mps 691 mmHg 81%
    21:00 +7°C° 0 mm 1 mps 691 mmHg 82%
    22:00 +6°C° 0 mm 0 mps 691 mmHg 83%
    23:00 +6°C° 0 mm 0 mps 690 mmHg 83%

    1 October, Sunday

    Time Temperature Precipitation Wind Pressure Humidity
    00:00 +6°C° 0 mm 0 mps 690 mmHg 83%
    01:00 +6°C° 0 mm 0 mps 690 mmHg 83%
    02:00 +6°C° 0 mm 0 mps 690 mmHg 83%
    03:00 +5°C° 0 mm 0 mps 690 mmHg 83%
    04:00 +5°C° 0 mm 0 mps 690 mmHg 83%
    05:00 +6°C° 0.1 mm 0 mps 690 mmHg 82%
    06:00 +6°C° 0.1 mm 0 mps 690 mmHg 82%
    07:00 +7°C° 0.1 mm 0 mps 690 mmHg 81%
    08:00 +9°C° 0.1 mm 1 mps 691 mmHg 76%
    09:00 +11°C° 0.1 mm 1 mps 691 mmHg 71%
    10:00 +13°C° 0.1 mm 1 mps 691 mmHg 67%
    11:00 +13°C° 0.1 mm 1 mps 691 mmHg 65%
    12:00 +14°C° 0.1 mm 1 mps 691 mmHg 64%
    13:00 +14°C° 0.1 mm 1 mps 691 mmHg 63%
    14:00 +14°C° 0.1 mm 1 mps 691 mmHg 65%
    15:00 +13°C° 0.1 mm 1 mps 690 mmHg 67%
    16:00 +13°C° 0.1 mm 1 mps 690 mmHg 69%
    17:00 +10°C° 0 mm 0 mps 690 mmHg 74%
    18:00 +9°C° 0 mm 0 mps 690 mmHg 80%
    19:00 +7°C° 0 mm 0 mps 690 mmHg 85%
    20:00 +7°C° 0 mm 0 mps 690 mmHg 85%
    21:00 +7°C° 0 mm 0 mps 690 mmHg 86%
    22:00 +6°C° 0 mm 0 mps 690 mmHg 86%
    23:00 +6°C° 0 mm 0 mps 690 mmHg 86%
    Show more